2025-012C (62727 NORAD) Tracking and Keplerian Element Data

This shows tracking and keplerian element data for the satellite.

Feedback or suggestion? Click here.




ElementValue
Catalog62727
Name2025-012C
Epoch Orbit269
Epoch Day35.18592218
Epoch Year2025
RAAN110.8391
Inclination97.4772
Eccentricity0.0009026
Argument of Perigee203.6151
Mean Anonmoly156.4668
Mean Motion15.14851554
Decay Rate0.00013264
L11 62727U 25012C 25035.18592218 .00013264 00000+0 71551-3 0 9992
L22 62727 97.4772 110.8391 0009026 203.6151 156.4668 15.14851554 2692



Live tracking and technical data element details for 2025-012C (NORAD 62727). 2025-012C can be tracked NOW for your location showing map with azimuth and elevation plus other details from your city location.







IsCatalogInMostPopularTable: catalog: 62727, numindb: 1
Update: records affected: 1



GetName: 62727 2025-012C

Hit Count: updated at: Sun, 09 Feb 2025 14:55:17 GMT